Regional Weather Roundup
Issued by NWS Huntsville, AL

Home | Current Version | Previous Version | Text Only | Print | Product List | Glossary On
Versions: 1 2 3 4 5 6 7 8 9 10 11 12 13 14 15 16 17 18 19 20 21 22 23 24 25 26 27 28 29
000
ASUS44 KHUN 050110
RWRHUN

WEATHER ROUNDUP FOR THE TENNESSEE VALLEY
NATIONAL WEATHER SERVICE HUNTSVILLE AL
800 PM CDT WED MAY 04 2016

ALZ001>004-050200-
NORTHWEST ALABAMA

CITY           SKY/WX    TMP DP  RH WIND       PRES   REMARKS
SHOALS AIRPORT CLEAR     62  56  80 NW3       29.78R
SHOALS TVA RES   N/A     63 N/A N/A MISG        N/A
$$

ALZ005>007-016-050200-
NORTH CENTRAL ALABAMA

CITY           SKY/WX    TMP DP  RH WIND       PRES   REMARKS
DECATUR AP     CLEAR     59  58  96 CALM      29.77R
HUNTSVILLE AP  PTCLDY    59  55  87 CALM      29.76R
HUN NWS/UAH      N/A     60  53  77 N9          N/A
MERIDIANVILLE  CLOUDY    57  48  72 NW10      29.77R
REDSTONE ARSN  MOCLDY    57  56  95 N2        29.76R
VINEMONT AP    FAIR      55  54  94 CALM      29.79S
$$

ALZ008>010-050200-
NORTHEAST ALABAMA

CITY           SKY/WX    TMP DP  RH WIND       PRES   REMARKS
ALBERTVILLE    CLOUDY    57  57 100 W7        29.76R
FORT PAYNE     PTCLDY    54  50  87 CALM      29.75R
SCOTTSBORO AP  PTCLDY    55  55 100 W3        29.76S
SCOTTSBORO HCN   N/A     57 N/A N/A MISG        N/A
VALLEY HEAD      N/A     54 N/A N/A MISG        N/A
$$

TNZ076-096-097-050200-
SOUTHEASTERN MIDDLE TENNESSEE

CITY           SKY/WX    TMP DP  RH WIND       PRES   REMARKS
TULLAHOMA      MOCLDY    54  52  94 CALM      29.79R
WINCHESTER     CLOUDY    54  50  87 CALM      29.79R
$$

...SURROUNDING SITES...

CITY           SKY/WX    TMP DP  RH WIND       PRES   REMARKS
ATLANTA        MOCLDY    65  44  46 W5        29.71R
ANNISTON       LGT RAIN  60  54  80 N15G26    29.76R
BIRMINGHAM     RAIN      59  56  89 N12G21    29.82R FOG
CHATTANOOGA    MOCLDY    56  54  93 CALM      29.76R
DALTON         CLOUDY    54  54 100 CALM      29.75R
GADSDEN        LGT RAIN  59  56  89 W7        29.76S
GOLDEN TRNGL   MOCLDY    64  57  77 N9        29.78R
HALEYVILLE     FAIR      56  55  97 CALM      29.80R FOG
JACKSON TN     CLEAR     64  43  46 N10       29.80R
MEMPHIS        PTCLDY    69  44  40 N7        29.80R
NASHVILLE      PTCLDY    59  49  69 N8        29.78R
OXFORD MS      FAIR      66  41  39 NW7       29.81R
ROME           CLOUDY    56  54  93 S3        29.74F
SAVANNAH       CLEAR     63  50  63 N6        29.78R
TUPELO         CLEAR     63  56  78 W5        29.77R
TUSCALOOSA     LGT RAIN  63  57  81 W6        29.79R
$$

...GULF COAST WEATHER...

CITY           SKY/WX    TMP DP  RH WIND       PRES   REMARKS
GULFPORT       CLEAR     69  50  50 W5        29.84R
PASCAGOULA     CLEAR     63  55  75 CALM      29.84R
MOBILE         CLEAR     66  53  63 W5        29.84R
GULF SHORES    CLEAR     65  52  60 CALM      29.82R
PENSACOLA      PTCLDY    64  49  57 CALM      29.81
DESTIN         CLEAR     73  50  44 NW7       29.80R
PANAMA CITY    CLEAR     70  49  46 N15       29.78R
APPALACHICOLA  CLEAR     67  52  58 N6        29.75R
$$





USA.gov is the U.S. government's official web portal to all federal, state and local government web resources and services.